Flag for U.S.A. Weather past 2 weeks in Terre Haute, Indiana, U.S.A.

Now
57 °F

Sunny.


Feels Like: 57 °F
Forecast: 54 / 79 °F
Wind: 3 mph from East

Location: Terre Haute International Airport - Hulman Field

Current Time: Jul 25, 2014 at 8:29:31 AM

Latest Report: Jul 25, 2014 at 7:53 AM


Visibility: 10 mi

Pressure: 30.07 "Hg

Humidity: 90%

Dew point: 54 °F

Location of Terre HauteLocation

Historic Weather in Terre Haute — Graph

°F

Terre Haute temperature yesterday

Maximum temperature yesterday: 77 °F (at 3:53 PM)
Minimum temperature yesterday: 55 °F (at 5:53 AM)
Average temperature yesterday: 66 °F

Past Weeks' High & Low Weather Summary

 TemperatureHumidityPressure
High85 °F (Jul 22, 12:53 PM)97% (Jul 10, 6:53 AM)30.21 "Hg (Jul 10, 6:53 AM)
Low52 °F (Jul 17, 3:53 AM)41% (Jul 10, 4:53 PM)29.82 "Hg (Jul 14, 2:53 PM)
Average69 °F75%30.05 "Hg
* Reported Jul 10 6:53 AM — Jul 25 6:53 AM, Terre Haute, Weather by CustomWeather, © 2014

Note: Actual official high and low records may vary slightly from our data, if they occured in-between our weather recording intervals... More about our weather records

Advertising

Terre Haute weather history for previous 24 hours

 ConditionsComfort  
Time TempWeatherWind HumidityBarometerVisibility
6:53 AM
Jul 25
52 °FClear.No wind89%30.07 "Hg10 mi
5:53 AM53 °FClear.No wind93%30.08 "Hg10 mi
5:04 AM53 °FFog.No wind93%30.08 "Hg0 mi
4:53 AM52 °FFog.No wind93%30.07 "Hg1 mi
4:01 AM53 °FFog.No wind89%30.08 "Hg1 mi
3:53 AM52 °FFog.No wind93%30.06 "Hg2 mi
2:53 AM54 °FClear.No wind93%30.05 "Hg10 mi
1:53 AM55 °FClear.No wind96%30.06 "Hg10 mi
12:53 AM58 °FClear.No wind90%30.05 "Hg10 mi
11:53 PM
Jul 24
59 °FClear.No wind87%30.05 "Hg10 mi
10:53 PM61 °FClear.No wind83%30.06 "Hg10 mi
9:53 PM62 °FSunny.3 mph83%30.07 "Hg10 mi
8:53 PM66 °FSunny.5 mph73%30.05 "Hg10 mi
7:53 PM74 °FSunny.8 mph53%30.05 "Hg10 mi
6:53 PM77 °FSunny.5 mph52%30.04 "Hg10 mi
5:53 PM77 °FBroken clouds.3 mph50%30.03 "Hg10 mi
4:53 PM74 °FScattered clouds.7 mph53%30.07 "Hg10 mi
3:53 PM77 °FPassing clouds.9 mph50%30.07 "Hg10 mi
2:53 PM76 °FScattered clouds.9 mph52%30.09 "Hg10 mi
1:53 PM73 °FScattered clouds.10 mph59%30.10 "Hg10 mi
12:53 PM73 °FPartly sunny.8 mph64%30.10 "Hg10 mi
11:53 AM74 °FBroken clouds.8 mph64%30.10 "Hg10 mi
10:53 AM70 °FSunny.5 mph68%30.11 "Hg10 mi
9:53 AM66 °FSunny.6 mph75%30.11 "Hg10 mi
8:53 AM62 °FSunny.8 mph80%30.10 "Hg10 mi
Weather by CustomWeather, © 2014

See weather overviewHow to use our weather pages